Other Public Products
Issued by NWS Grand Forks, ND

Home | Current Version | Previous Version | Text Only | Print | Product List | Glossary Off
Versions: 1 2 3 4 5 6 7 8 9 10 11 12 13 14 15 16 17 18 19 20 21 22 23 24 25 26 27 28 29 30 31 32 33 34 35 36 37 38 39 40 41 42 43 44 45 46 47 48 49 50

000
FPUS83 KFGF 291710
OPUFGF
PRAIRIE TO PINES WEATHER ROUNDUP
NATIONAL WEATHER SERVICE EASTERN NORTH DAKOTA/GRAND FORKS ND
1200 PM CDT TUE JUL 29 2014

 **SATELLITE DATA USED TO AUGMENT SKY COVER AT AUTOMATED STATIONS**
 *****  WEATHER ACROSS EASTERN NORTH DAKOTA  *****

CITY           SKY/WX    TMP DP  RH WIND       PRES   REMARKS
GRAND FORKS    MOSUNNY   75  55  49 N6        30.16F
GRAND FORKS AF SUNNY     74  58  56 NW7       30.18S
GRAND CITY NWS   N/A     73 N/A N/A NW5         N/A
BUXTON         NOT AVBL
DEVILS LAKE    MOSUNNY   70  54  56 NW6       30.19S
FARGO          MOSUNNY   73  54  51 NW10      30.17F
WAHPETON ARPT  MOSUNNY   72  50  46 N5        30.19S
$$

 *****  WEATHER ACROSS CENTRAL AND WESTERN NORTH DAKOTA  *****

CITY           SKY/WX    TMP DP  RH WIND       PRES   REMARKS
JAMESTOWN      MOSUNNY   71  52  50 N7        30.20F
BISMARCK       SUNNY     75  53  46 VRB5      30.23F
MINOT          SUNNY     76  56  49 VRB3      30.20S
MINOT AFB      SUNNY     74  58  56 CALM      30.19F
GARRISON         N/A     75  57  53 S7        30.22S
WILLISTON      SUNNY     78  56  46 E3        30.20F
DICKINSON      MOSUNNY   76  53  44 S8        30.22S
HETTINGER      SUNNY     76  49  38 VRB5      30.24F
$$

 *****  OTHER OBSERVATIONS NORTHEAST NORTH DAKOTA  *****

CITY           SKY/WX    TMP DP  RH WIND       PRES   REMARKS
WALHALLA       FAIR      73  55  53 N8          N/A
LANGDON        FAIR      73  52  46 NW8       30.20S
CAVALIER       FAIR      73  54  49 N7        30.17S
GRAFTON        FAIR      73  55  53 N6        30.17S
CANDO          FAIR      73  54  49 N7        30.21S
FORT TOTTEN      N/A     73  57  56 N3        29.95S
ROLLA            N/A     72  55  56 N7        30.22S
RUGBY          FAIR      72  57  60 NW6       30.20S
 ***** THE ABOVE OBSERVATIONS ARE NON NWS ARE NOT QUALITY
        CONTROLLED AND MAY MIS-REPORT RAIN FOR SNOW...
$$

 *****  OTHER OBSERVATIONS SOUTHEAST NORTH DAKOTA *****

CITY           SKY/WX    TMP DP  RH WIND       PRES   REMARKS
COOPERSTOWN    NOT AVBL
VALLEY CITY    CLOUDY    72  52  49 NW6       30.21S
OAKES          NOT AVBL
GWINNER        SUNNY     73  54  49 N5        30.21F
BUFFALO        NOT AVBL
WYNDMERE       NOT AVBL
 ***** THE ABOVE OBSERVATIONS ARE NON NWS ARE NOT QUALITY
       CONTROLLED AND MAY MIS-REPORT RAIN FOR SNOW...
$$

  *****  WEATHER ACROSS NORTHERN MINNESOTA  *****

CITY           SKY/WX    TMP DP  RH WIND       PRES   REMARKS
FLAG ISLAND    SUNNY     72  55  56 NW15      30.09S
WARROAD        SUNNY     73  57  56 NW13G20   30.13S
ROSEAU         SUNNY     73  61  64 W8        30.13F
HALLOCK        SUNNY     73  55  53 NW7       30.15F
THF RVR FALLS  SUNNY     72  55  56 N6        30.17S
HALSTAD          N/A     74  52  45 N7          N/A
FOSSTON        MOSUNNY   72  54  53 W7        30.17F
BAUDETTE       SUNNY     73  55  53 NW15      30.11F
WASKISH        SUNNY     73  55  53 NW9       30.12S
CROOKSTON      SUNNY     72  57  60 NW9       30.18S
$$
  *****  WEATHER ACROSS CENTRAL AND WEST MINNESOTA  *****

CITY           SKY/WX    TMP DP  RH WIND       PRES   REMARKS
BEMIDJI        MOSUNNY   72  56  57 NW12      30.15S
PARK RAPIDS    MOSUNNY   73  53  49 NW12      30.16S
WADENA         SUNNY     72  55  56 N9        30.17S
DETROIT LAKES  MOSUNNY   70  54  56 N10       30.19F
MOORHEAD       MOSUNNY   73  55  53 NW7       30.18S
FERGUS FALLS   PTSUNNY   70  54  56 NW7       30.18S
ELBOW LAKE     FAIR      70  57  63 NW7       30.19S
MORRIS MN      SUNNY     73  57  56 NW8       30.18F
STAPLES        MOSUNNY   72  54  53 NW10G18   30.16S
WHEATON        SUNNY     70  55  60 W7        30.21F
$$
  *****  WEATHER ELSEWHERE ACROSS MINNESOTA  *****

CITY           SKY/WX    TMP DP  RH WIND       PRES   REMARKS
DULUTH         LGT RAIN  65  55  70 N17G28    30.09R
INTRNTL FALLS  SUNNY     74  58  57 NW6G16    30.07S
ELY            MOSUNNY   72  57  60 NW6       30.04F
CLOQUET        MOSUNNY   73  54  49 NW15      30.08S
BRAINERD       PTSUNNY   71  56  58 W10       30.14S
HIBBING        SUNNY     74  55  51 NW9       30.08S
ALEXANDRIA     SUNNY     73  54  51 NW9       30.19S
SAINT CLOUD    SUNNY     78  57  48 N8        30.13F
MINNEAPOLIS    MOSUNNY   77  55  46 W8G18     30.12S
$$

  *****  WEATHER ACROSS SOUTH DAKOTA  *****

CITY           SKY/WX    TMP DP  RH WIND       PRES   REMARKS
SIOUX FALLS    PTSUNNY   71  52  50 NW7       30.22F
BROOKINGS      NOT AVBL
WATERTOWN      PTSUNNY   68  51  54 VRB5      30.22S
HURON          MOSUNNY   73  54  51 E3        30.21F
SISSETON         N/A     73  55  53 N9        30.19F
ABERDEEN       MOSUNNY   73  51  46 VRB3      30.21F
MITCHELL       MOSUNNY   73  53  49 CALM      30.23S
PIERRE         MOSUNNY   76  51  41 NE5       30.21F
MOBRIDGE       SUNNY     75  52  44 W5        30.20F
RAPID CITY     CLOUDY    65  56  72 CALM      30.27R
$$

  *****  SOME WEATHER IN NEARBY STATES *****

CITY           SKY/WX    TMP DP  RH WIND       PRES   REMARKS
GLASGOW MT     SUNNY     86  43  22 NE9       30.19F
GREAT FALLS MT SUNNY     81  46  29 VRB3      30.21S
CHEYENNE WY    PTSUNNY   68  57  68 N10G21    30.33R
SCOTTSBLUFF NE CLOUDY    67  58  72 VRB6      30.27F
OMAHA NE       PTSUNNY   76  56  49 N8        30.21S
DES MOINES IA  MOSUNNY   78  55  44 NW12      30.17S
DAVENPORT IA   SUNNY     75  58  55 VRB6      30.11F
CHICAGO IL     MOSUNNY   77  52  41 NW13G21   30.04S
EAU CLAIRE WI  MOSUNNY   77  57  50 NW10      30.08S
LA CROSSE WI   SUNNY     76  58  53 NW7       30.08F
$$

  *****  SOME NATIONAL WEATHER *****

CITY           SKY/WX    TMP DP  RH WIND       PRES   REMARKS
LA GUARDIA NY  PTSUNNY   72  51  47 NW9       29.86S
RALEIGH NC     MOSUNNY   78  53  41 CALM      29.96F
ATLANTA GA     MOSUNNY   78  60  53 NW12      30.02F
NEW ORLEANS LA PTSUNNY   85  67  54 NE8       30.08S
OKLAHOMA CITY  PTSUNNY   88  59  37 S10G17    30.18S
ALBUQUERQUE NM PTSUNNY   73  60  63 S6        30.32F
SALT LAKE CITY CLOUDY    70  64  81 N8        30.21R
LOS ANGELES CA MOSUNNY   74  63  68 W9        30.05S
BOISE ID       CLOUDY    85  50  29 N5        30.11F
SEATTLE WA     SUNNY     71  55  56 W5        30.16S
$$

*** WEATHER ACROSS MANITOBA...SASKATCHEWAN AND ONTARIO ***
                ***ONTARIO***

CITY           SKY/WX    TMP DP  RH WIND       PRES   REMARKS
GERALDTON      PTSUNNY   61  46  59 N10G18    29.98S
THUNDER BAY    PTSUNNY   68  61  77 W7        29.98F
SIOUX LOOKOUT  PTSUNNY   68  57  68 NE5       30.05S
TORONTO        PTSUNNY   68  46  45 W5        29.94S
BIG TROUT LK   SUNNY     64  46  52 VRB6      30.10F
PICKLE LAKE    MOSUNNY   64  45  48 N8        30.06S
DRYDEN         SUNNY     72  57  60 N8        30.05S
KENORA         CLOUDY    72  57  60 NW9       30.10F
$$
                *** MANITOBA***

CITY           SKY/WX    TMP DP  RH WIND       PRES   REMARKS
BRANDON        PTSUNNY   75  54  46 NE6       30.20S
DAUPHIN        SUNNY     75  57  53 N7        30.18S
ISLAND LAKE    PTSUNNY   72  59  64 W6        30.09S
PILOT MOUND      N/A     70  54  56 NW6         N/A
THE PAS        SUNNY     77  57  50 W3        30.14F
THOMPSON       MOSUNNY   73  59  60 NE7       30.11S
WINNIPEG       MOSUNNY   75  57  53 N8        30.15F
CHURCHILL      MOSUNNY   63  50  63 SE5       30.15F
GILLAM         SUNNY     66  55  68 N6        30.14F
$$
                ***SASKATCHEWAN***

CITY           SKY/WX    TMP DP  RH WIND       PRES   REMARKS
ESTEVAN        MOSUNNY   75  59  57 E5        30.22S
KINDERSLEY     MOSUNNY   75  59  57 SE13      30.21S
LLOYDMINSTER   MOSUNNY   77  59  53 SE14G21   30.20S
PRINCE ALBERT  MOSUNNY   75  63  64 VRB5      30.20F
REGINA         MOSUNNY   75  61  60 N7        30.23S
YORKTON        SUNNY     72  55  56 N6        30.21F
N. BATTLEFORD    N/A     75  63  64 SE6       30.24R


USA.gov is the U.S. government's official web portal to all federal, state and local government web resources and services.